User: anonymous   Login
Location: Betra
(48.4113°N, 8.6634°E)
Time: 16:40:03
(UTC+00:00)
Language:

Cosmos 1850 Rocket - Orbit

View from above orbital plane
View from above orbital plane
View from above satellite
View from above satellite

Ground track
Ground track

The orbit data is extracted from the following two-line orbital elements,

1 18096U 87049B   24199.95884047  .00000793  00000-0  27388-3 0  9992
2 18096  74.0416 151.9314 0020526  45.4929 314.7897 14.37293067943298
Epoch (UTC): 17 July 2024 23:00:43
Eccentricity: 0.0020526
inclination: 74.0416°
perigee height: 753 km
apogee height: 782 km
right ascension of ascending node: 151.9314°
argument of perigee: 45.4929°
revolutions per day: 14.37293067
mean anomaly at epoch: 314.7897°
orbit number at epoch: 94329

The dashed part of the orbit path shows where the satellite is in the earth's shadow,  

DLR